Powrót do katalogu

CZ-6A DEB

AktywnyPO
NORAD 61425·DEBRIS·🇨🇳 China

Wystrzelony Aug 6, 2024 z Taiyuan Satellite Launch Center

Loading…

Następne Przeloty (najbliższe 24 godziny)

TLE

ŚwieżeSource: Space-Track

Epoka: Sep 14, 2026, 10:47 UTC

1 61425U 24140YS  26257.44951728  .00000193  00000-0  85821-4 0  9992
2 61425  89.0035 265.5177 0051502 278.0862  81.4486 14.18435784106748

Śledź CZ-6A DEB w czasie rzeczywistym z AllMySat

Download on the App Store